Date String (YYYY-MM-DD hh:mm:ss) UTC,Instrument flags,Ambient pressure (hPa),Sample flow (lpm),Bypass flow (lpm),Sample temperature (°C),Ambient temperature (°C),ASC tube jacket temperature (°C),LED temperature (°C),Box temperature (°C),Sample RH (%),Span deviation,Mass concentration (μg/m³),Mass concentration (μg/m³),Mass concentration (μg/m³)
DateTimeUTC,F1_M11,P_M11,Q1_M11,Q2_M11,T1_M11,T2_M11,T3_M11,T4_M11,T5_M11,U1_M11,ZSPAN_M11,X0_M11,X2_M11,X1_M11
2022-10-12 07:00:00,,0825.5,5.01,0.00,28.2,26.6,00.0,37.1,30.0,17.8,0001.6,0018.15,0006.03,0004.71
2022-10-12 07:01:00,,0825.5,5.00,0.00,28.2,26.6,00.0,37.1,30.0,17.7,0001.5,0017.65,0006.04,0004.70
2022-10-12 07:02:00,,0825.5,5.00,0.00,28.2,26.7,00.0,37.1,30.1,17.7,0001.6,0017.58,0006.07,0004.70
2022-10-12 07:03:00,,0825.5,5.01,0.00,28.2,26.7,00.0,37.0,30.1,17.7,0001.5,0017.38,0006.03,0004.70
2022-10-12 07:04:00,,0825.5,4.99,0.00,28.2,26.7,00.0,37.1,30.1,17.7,0000.9,0018.80,0006.08,0004.70
2022-10-12 07:05:00,,0825.5,5.01,0.00,28.3,26.7,00.0,37.1,30.1,17.7,0001.0,0019.26,0006.16,0004.72
2022-10-12 07:06:00,,0825.5,4.99,0.00,28.3,26.8,00.0,37.1,30.1,17.7,0001.0,0018.82,0006.19,0004.75
2022-10-12 07:07:00,,0825.5,4.99,0.00,28.3,26.8,00.0,37.1,30.1,17.7,0000.8,0018.54,0006.18,0004.75
2022-10-12 07:08:00,,0825.5,5.00,0.00,28.3,26.8,00.0,37.1,30.1,17.7,0000.6,0017.68,0006.17,0004.77
2022-10-12 07:09:00,,0825.6,5.01,0.00,28.3,26.8,00.0,37.1,30.2,17.7,0000.7,0016.98,0006.18,0004.79
2022-10-12 07:10:00,,0825.6,4.99,0.00,28.3,26.8,00.0,37.1,30.2,17.7,0000.9,0016.67,0006.22,0004.81
2022-10-12 07:11:00,,0825.6,5.01,0.00,28.3,26.8,00.0,37.1,30.2,17.6,0001.3,0016.56,0006.19,0004.81
2022-10-12 07:12:00,,0825.5,4.99,0.00,28.3,26.8,00.0,37.1,30.2,17.6,0001.3,0016.63,0006.17,0004.81
2022-10-12 07:13:00,,0825.5,5.01,0.00,28.3,26.8,00.0,37.1,30.2,17.6,0001.3,0016.61,0006.16,0004.82
2022-10-12 07:14:00,,0825.5,4.99,0.00,28.3,26.8,00.0,37.1,30.2,17.6,0001.6,0017.42,0006.18,0004.84
2022-10-12 07:15:00,,0825.6,5.00,0.00,28.3,26.8,00.0,37.1,30.2,17.6,0002.0,0016.89,0006.24,0004.85
2022-10-12 07:16:00,,0825.6,5.00,0.00,28.3,26.9,00.0,37.1,30.2,17.5,0001.4,0016.66,0006.27,0004.84
2022-10-12 07:17:00,,0825.6,5.00,0.00,28.3,26.9,00.0,37.1,30.2,17.5,0001.4,0017.24,0006.22,0004.83
2022-10-12 07:18:00,,0825.6,5.00,0.00,28.3,26.9,00.0,37.1,30.2,17.4,0002.5,0016.69,0006.17,0004.84
2022-10-12 07:19:00,,0825.6,4.99,0.00,28.4,26.9,00.0,37.1,30.2,17.4,0002.5,0016.98,0006.17,0004.85
2022-10-12 07:20:00,,0825.5,5.01,0.00,28.4,26.9,00.0,37.1,30.2,17.5,0002.8,0017.09,0006.19,0004.85
2022-10-12 07:21:00,,0825.5,4.99,0.00,28.4,26.9,00.0,37.1,30.2,17.5,0002.1,0017.01,0006.14,0004.84
2022-10-12 07:22:00,,0825.6,5.01,0.00,28.4,26.9,00.0,37.1,30.2,17.6,0001.6,0016.27,0006.12,0004.84
2022-10-12 07:23:00,,0825.6,5.00,0.00,28.4,26.9,00.0,37.1,30.2,17.6,0000.0,0016.26,0006.17,0004.85
2022-10-12 07:24:00,,0825.6,5.01,0.00,28.4,26.9,00.0,37.1,30.2,17.6,0000.0,0016.12,0006.17,0004.85
2022-10-12 07:25:00,,0825.6,4.99,0.00,28.4,26.9,00.0,37.1,30.2,17.6,0000.0,0014.92,0006.19,0004.85
2022-10-12 07:26:00,,0825.6,5.01,0.00,28.4,26.9,00.0,37.1,30.2,17.5,0000.0,0014.55,0006.22,0004.86
2022-10-12 07:27:00,,0825.6,5.01,0.00,28.4,26.9,00.0,37.1,30.2,17.5,0000.0,0014.33,0006.20,0004.88
2022-10-12 07:28:00,,0825.6,4.98,0.00,28.4,26.9,00.0,37.1,30.3,17.5,0000.0,0014.67,0006.21,0004.89
2022-10-12 07:29:00,,0825.7,5.01,0.00,28.4,26.9,00.0,37.1,30.3,17.5,0000.0,0015.55,0006.21,0004.88
2022-10-12 07:30:00,,0825.7,5.00,0.00,28.4,26.9,00.0,37.2,30.3,17.5,0000.0,0015.27,0006.23,0004.89
2022-10-12 07:31:00,,0825.7,4.99,0.00,28.4,26.9,00.0,37.2,30.3,17.5,0001.6,0015.12,0006.25,0004.88
2022-10-12 07:32:00,,0825.7,5.02,0.00,28.4,26.9,00.0,37.2,30.3,17.5,0002.1,0015.22,0006.25,0004.91
2022-10-12 07:33:00,,0825.6,4.98,0.00,28.4,26.9,00.0,37.2,30.3,17.5,0002.3,0015.87,0006.30,0004.93
2022-10-12 07:34:00,,0825.7,5.00,0.00,28.4,26.9,00.0,37.2,30.3,17.5,0002.3,0016.13,0006.33,0004.95
2022-10-12 07:35:00,,0825.7,5.01,0.00,28.4,26.9,00.0,37.2,30.3,17.5,0002.6,0016.18,0006.35,0004.96
2022-10-12 07:36:00,,0825.7,4.99,0.00,28.4,26.9,00.0,37.2,30.3,17.4,0002.6,0016.77,0006.38,0004.99
2022-10-12 07:37:00,,0825.7,5.02,0.00,28.4,26.9,00.0,37.2,30.3,17.4,0002.8,0017.69,0006.36,0004.99
2022-10-12 07:38:00,,0825.7,4.98,0.00,28.4,27.0,00.0,37.2,30.3,17.4,0002.8,0017.85,0006.31,0004.99
2022-10-12 07:39:00,,0825.7,5.01,0.00,28.4,27.0,00.0,37.2,30.3,17.4,0002.6,0017.48,0006.33,0004.99
2022-10-12 07:40:00,,0825.7,5.00,0.00,28.4,27.0,00.0,37.2,30.3,17.4,0002.4,0016.32,0006.38,0005.01
2022-10-12 07:41:00,,0825.7,4.99,0.00,28.4,26.9,00.0,37.2,30.3,17.4,0002.3,0017.55,0006.39,0005.00
2022-10-12 07:42:00,,0825.7,5.01,0.00,28.4,26.9,00.0,37.2,30.3,17.4,0002.5,0018.14,0006.33,0005.00
2022-10-12 07:43:00,,0825.9,4.98,0.00,28.4,26.9,00.0,37.2,30.3,17.4,0002.3,0018.99,0006.29,0004.98
2022-10-12 07:44:00,,0825.7,5.01,0.00,28.4,26.9,00.0,37.2,30.3,17.4,0001.8,0019.52,0006.30,0004.97
2022-10-12 07:45:00,,0825.7,5.00,0.00,28.5,27.0,00.0,37.2,30.3,17.4,0001.4,0019.93,0006.26,0004.96
2022-10-12 07:46:00,,0826.0,4.99,0.00,28.5,27.0,00.0,37.2,30.3,17.4,0000.6,0020.78,0006.29,0004.96
2022-10-12 07:47:00,,0825.8,5.01,0.00,28.5,27.0,00.0,37.2,30.3,17.4,0000.1,0021.36,0006.27,0004.95
2022-10-12 07:48:00,,0825.7,4.99,0.00,28.5,27.0,00.0,37.2,30.3,17.4,0000.1,0020.72,0006.27,0004.95
2022-10-12 07:49:00,,0826.1,5.01,0.00,28.5,27.0,00.0,37.2,30.3,17.4,0000.2,0020.48,0006.32,0004.96
2022-10-12 07:50:00,,0825.8,5.00,0.00,28.5,27.0,00.0,37.2,30.4,17.4,0000.5,0020.95,0006.38,0004.98
2022-10-12 07:51:00,,0825.9,4.99,0.00,28.5,27.0,00.0,37.2,30.3,17.4,0000.1,0021.28,0006.39,0005.00
2022-10-12 07:52:00,,0825.9,5.01,0.00,28.5,27.0,00.0,37.2,30.3,17.4,0000.3,0020.64,0006.43,0005.01
2022-10-12 07:53:00,,0825.9,4.99,0.00,28.5,27.0,00.0,37.2,30.4,17.3,0000.0,0019.88,0006.48,0005.03
2022-10-12 07:54:00,,0825.9,5.00,0.00,28.5,27.0,00.0,37.2,30.4,17.3,0000.0,0019.31,0006.53,0005.04
2022-10-12 07:55:00,,0826.0,5.01,0.00,28.5,27.0,00.0,37.2,30.4,17.3,0000.0,0018.84,0006.51,0005.05
2022-10-12 07:56:00,,0826.0,4.99,0.00,28.5,27.0,00.0,37.2,30.4,17.3,0000.7,0018.85,0006.45,0005.05
2022-10-12 07:57:00,,0826.0,5.01,0.00,28.5,27.0,00.0,37.2,30.4,17.3,0002.1,0020.05,0006.44,0005.05
2022-10-12 07:58:00,,0826.0,4.99,0.00,28.5,27.0,00.0,37.2,30.4,17.3,0001.5,0019.45,0006.46,0005.07
2022-10-12 07:59:00,,0825.9,5.00,0.00,28.5,27.0,00.0,37.2,30.3,17.3,0002.4,0019.16,0006.47,0005.08
